When you browse on this site, cookies collect data to enhance your experience and personalize the content and advertising you see.
Visit our Privacy Policy to learn more. By continuing to use the site, you agree to this use of cookies and data.
  • In Deutschland
  • Länderverzeichnis
  • Für 7 Tage
  • Wassertemperatur
  • Wetterkarte
  • Widgets
  • user-avatar
    Anmelden

    Stündliche Wetter Mauritius

    Heute, 19 August, Montag

    Zeit Temperatur Niederschläge Wind Luftdruck Luftfeuchtigkeit
    00:00 +20°C° 0.1 mm 4 m/S 726 mmHg 84%
    01:00 +20°C° 0.1 mm 4 m/S 726 mmHg 85%
    02:00 +20°C° 0.1 mm 4 m/S 726 mmHg 85%
    03:00 +19°C° 0.1 mm 4 m/S 726 mmHg 85%
    04:00 +19°C° 0.1 mm 4 m/S 726 mmHg 85%
    05:00 +19°C° 0.1 mm 4 m/S 726 mmHg 84%
    06:00 +19°C° 0.1 mm 4 m/S 726 mmHg 83%
    07:00 +20°C° 0.1 mm 5 m/S 727 mmHg 82%
    08:00 +20°C° 0 mm 5 m/S 727 mmHg 77%
    09:00 +21°C° 0 mm 5 m/S 727 mmHg 72%
    10:00 +22°C° 0 mm 6 m/S 728 mmHg 67%
    11:00 +22°C° 0 mm 6 m/S 727 mmHg 67%
    12:00 +23°C° 0 mm 6 m/S 727 mmHg 66%
    13:00 +23°C° 0 mm 6 m/S 727 mmHg 65%
    14:00 +23°C° 0 mm 6 m/S 727 mmHg 66%
    15:00 +22°C° 0 mm 6 m/S 727 mmHg 67%
    16:00 +22°C° 0 mm 6 m/S 726 mmHg 68%
    17:00 +22°C° 0 mm 6 m/S 727 mmHg 71%
    18:00 +21°C° 0 mm 6 m/S 727 mmHg 74%
    19:00 +20°C° 0 mm 6 m/S 727 mmHg 77%
    20:00 +20°C° 0.1 mm 6 m/S 728 mmHg 78%
    21:00 +20°C° 0.1 mm 6 m/S 728 mmHg 79%
    22:00 +20°C° 0.1 mm 6 m/S 728 mmHg 80%
    23:00 +20°C° 0.1 mm 6 m/S 728 mmHg 81%

    Morgen, 20 August, Dienstag

    Zeit Temperatur Niederschläge Wind Luftdruck Luftfeuchtigkeit
    00:00 +20°C° 0.1 mm 6 m/S 728 mmHg 81%
    01:00 +20°C° 0.1 mm 5 m/S 728 mmHg 82%
    02:00 +20°C° 0.1 mm 5 m/S 728 mmHg 82%
    03:00 +19°C° 0.1 mm 5 m/S 727 mmHg 82%
    04:00 +19°C° 0.1 mm 5 m/S 727 mmHg 82%
    05:00 +19°C° 0.1 mm 6 m/S 727 mmHg 82%
    06:00 +20°C° 0.1 mm 6 m/S 728 mmHg 81%
    07:00 +20°C° 0.1 mm 6 m/S 728 mmHg 81%
    08:00 +20°C° 0.2 mm 7 m/S 728 mmHg 79%
    09:00 +21°C° 0.2 mm 7 m/S 728 mmHg 77%
    10:00 +22°C° 0.2 mm 8 m/S 729 mmHg 75%
    11:00 +22°C° 0.4 mm 8 m/S 728 mmHg 75%
    12:00 +22°C° 0.4 mm 8 m/S 728 mmHg 76%
    13:00 +21°C° 0.4 mm 8 m/S 728 mmHg 76%
    14:00 +21°C° 0.3 mm 8 m/S 727 mmHg 77%
    15:00 +21°C° 0.3 mm 8 m/S 727 mmHg 79%
    16:00 +21°C° 0.3 mm 8 m/S 727 mmHg 80%
    17:00 +19°C° 0.3 mm 9 m/S 727 mmHg 80%
    18:00 +19°C° 0.3 mm 9 m/S 728 mmHg 80%
    19:00 +19°C° 0.3 mm 9 m/S 728 mmHg 81%
    20:00 +20°C° 0.2 mm 8 m/S 728 mmHg 81%
    21:00 +20°C° 0.2 mm 8 m/S 728 mmHg 80%
    22:00 +20°C° 0.2 mm 8 m/S 728 mmHg 80%
    23:00 +20°C° 0.2 mm 8 m/S 728 mmHg 81%

    übermorgen, 21 August, Mittwoch

    Zeit Temperatur Niederschläge Wind Luftdruck Luftfeuchtigkeit
    00:00 +20°C° 0.2 mm 8 m/S 728 mmHg 82%
    01:00 +20°C° 0.2 mm 7 m/S 728 mmHg 83%
    02:00 +20°C° 0.1 mm 7 m/S 728 mmHg 84%
    03:00 +18°C° 0.1 mm 7 m/S 727 mmHg 85%
    04:00 +18°C° 0.1 mm 7 m/S 727 mmHg 85%
    05:00 +18°C° 0 mm 7 m/S 727 mmHg 85%
    06:00 +19°C° 0 mm 6 m/S 728 mmHg 84%
    07:00 +19°C° 0 mm 6 m/S 728 mmHg 84%
    08:00 +20°C° 0 mm 6 m/S 728 mmHg 80%
    09:00 +21°C° 0 mm 6 m/S 728 mmHg 77%
    10:00 +22°C° 0 mm 6 m/S 728 mmHg 73%
    11:00 +22°C° 0 mm 5 m/S 728 mmHg 71%
    12:00 +23°C° 0 mm 5 m/S 728 mmHg 69%
    13:00 +23°C° 0 mm 5 m/S 727 mmHg 67%
    14:00 +23°C° 0 mm 4 m/S 727 mmHg 67%
    15:00 +23°C° 0 mm 4 m/S 727 mmHg 67%
    16:00 +22°C° 0 mm 4 m/S 727 mmHg 67%
    17:00 +22°C° 0 mm 4 m/S 727 mmHg 71%
    18:00 +21°C° 0 mm 4 m/S 727 mmHg 74%
    19:00 +21°C° 0 mm 3 m/S 727 mmHg 77%
    20:00 +20°C° 0 mm 3 m/S 728 mmHg 78%
    21:00 +20°C° 0 mm 3 m/S 728 mmHg 78%
    22:00 +20°C° 0 mm 3 m/S 728 mmHg 79%
    23:00 +20°C° 0 mm 3 m/S 728 mmHg 79%

    22 August, Donnerstag

    Zeit Temperatur Niederschläge Wind Luftdruck Luftfeuchtigkeit
    00:00 +19°C° 0 mm 3 m/S 727 mmHg 79%
    01:00 +19°C° 0 mm 3 m/S 727 mmHg 79%
    02:00 +19°C° 0 mm 3 m/S 727 mmHg 79%
    03:00 +19°C° 0 mm 3 m/S 727 mmHg 79%
    04:00 +19°C° 0 mm 3 m/S 727 mmHg 79%
    05:00 +19°C° 0 mm 4 m/S 727 mmHg 80%
    06:00 +19°C° 0 mm 4 m/S 727 mmHg 80%
    07:00 +19°C° 0 mm 4 m/S 727 mmHg 80%
    08:00 +20°C° 0 mm 4 m/S 728 mmHg 75%
    09:00 +21°C° 0 mm 4 m/S 728 mmHg 70%
    10:00 +22°C° 0 mm 4 m/S 728 mmHg 65%
    11:00 +22°C° 0 mm 4 m/S 728 mmHg 65%
    12:00 +22°C° 0 mm 5 m/S 728 mmHg 64%
    13:00 +22°C° 0 mm 5 m/S 727 mmHg 64%
    14:00 +22°C° 0 mm 5 m/S 727 mmHg 64%
    15:00 +22°C° 0 mm 5 m/S 727 mmHg 64%
    16:00 +22°C° 0 mm 5 m/S 727 mmHg 65%
    17:00 +21°C° 0 mm 5 m/S 727 mmHg 68%
    18:00 +21°C° 0 mm 5 m/S 727 mmHg 71%
    19:00 +20°C° 0 mm 5 m/S 728 mmHg 74%
    20:00 +20°C° 0 mm 5 m/S 728 mmHg 74%
    21:00 +20°C° 0 mm 5 m/S 728 mmHg 75%
    22:00 +20°C° 0 mm 5 m/S 728 mmHg 76%
    23:00 +19°C° 0 mm 5 m/S 728 mmHg 77%

    23 August, Freitag

    Zeit Temperatur Niederschläge Wind Luftdruck Luftfeuchtigkeit
    00:00 +19°C° 0 mm 5 m/S 727 mmHg 79%
    01:00 +19°C° 0 mm 5 m/S 727 mmHg 81%
    02:00 +19°C° 0 mm 5 m/S 727 mmHg 81%
    03:00 +19°C° 0 mm 5 m/S 727 mmHg 81%
    04:00 +19°C° 0 mm 5 m/S 726 mmHg 82%
    05:00 +19°C° 0 mm 5 m/S 727 mmHg 81%
    06:00 +19°C° 0 mm 5 m/S 727 mmHg 81%
    07:00 +19°C° 0 mm 5 m/S 727 mmHg 81%
    08:00 +20°C° 0 mm 5 m/S 728 mmHg 76%
    09:00 +21°C° 0 mm 5 m/S 728 mmHg 71%
    10:00 +21°C° 0 mm 6 m/S 728 mmHg 66%
    11:00 +22°C° 0 mm 5 m/S 728 mmHg 64%
    12:00 +22°C° 0 mm 5 m/S 727 mmHg 61%
    13:00 +23°C° 0 mm 5 m/S 727 mmHg 59%
    14:00 +22°C° 0 mm 5 m/S 727 mmHg 60%
    15:00 +22°C° 0 mm 5 m/S 726 mmHg 62%
    16:00 +22°C° 0 mm 5 m/S 726 mmHg 64%
    17:00 +21°C° 0.1 mm 5 m/S 727 mmHg 68%
    18:00 +21°C° 0.1 mm 5 m/S 727 mmHg 72%
    19:00 +20°C° 0.1 mm 5 m/S 727 mmHg 76%
    20:00 +20°C° 0.2 mm 5 m/S 727 mmHg 78%
    21:00 +20°C° 0.2 mm 5 m/S 727 mmHg 79%
    22:00 +20°C° 0.2 mm 5 m/S 728 mmHg 80%
    23:00 +20°C° 0.1 mm 5 m/S 727 mmHg 80%

    24 August, Samstag

    Zeit Temperatur Niederschläge Wind Luftdruck Luftfeuchtigkeit
    00:00 +19°C° 0.1 mm 5 m/S 727 mmHg 81%
    01:00 +19°C° 0.1 mm 5 m/S 727 mmHg 82%
    02:00 +19°C° 0 mm 5 m/S 727 mmHg 81%
    03:00 +19°C° 0 mm 5 m/S 727 mmHg 81%
    04:00 +19°C° 0 mm 4 m/S 726 mmHg 81%
    05:00 +19°C° 0 mm 4 m/S 727 mmHg 81%
    06:00 +19°C° 0 mm 4 m/S 727 mmHg 81%
    07:00 +19°C° 0 mm 4 m/S 727 mmHg 80%
    08:00 +20°C° 0 mm 5 m/S 727 mmHg 75%
    09:00 +21°C° 0 mm 5 m/S 727 mmHg 70%
    10:00 +22°C° 0 mm 5 m/S 728 mmHg 65%
    11:00 +22°C° 0 mm 5 m/S 727 mmHg 63%
    12:00 +22°C° 0 mm 5 m/S 727 mmHg 61%
    13:00 +23°C° 0 mm 5 m/S 727 mmHg 59%
    14:00 +22°C° 0 mm 5 m/S 726 mmHg 61%
    15:00 +22°C° 0 mm 5 m/S 726 mmHg 63%
    16:00 +22°C° 0 mm 5 m/S 726 mmHg 65%
    17:00 +21°C° 0 mm 5 m/S 726 mmHg 68%
    18:00 +21°C° 0 mm 5 m/S 727 mmHg 71%
    19:00 +20°C° 0 mm 5 m/S 727 mmHg 74%
    20:00 +20°C° 0 mm 5 m/S 727 mmHg 74%
    21:00 +20°C° 0 mm 5 m/S 727 mmHg 74%
    22:00 +19°C° 0 mm 5 m/S 728 mmHg 74%
    23:00 +19°C° 0 mm 5 m/S 728 mmHg 75%
    Mehr zeigen